Regional Weather Roundup
Issued by NWS

Home | Current Version | Previous Version | Graphics & Text | Print | Product List | Glossary On
Versions: 1 2 3 4 5 6 7 8 9 10 11 12 13 14 15 16 17 18 19 20 21 22 23 24 25 26 27 28 29 30 31 32 33 34 35 36 37 38 39 40 41 42 43 44 45 46 47 48 49 50
000
ASUS44 KMEG 250010
RWRTN
TENNESSEE HOURLY STATE WEATHER ROUNDUP
NATIONAL WEATHER SERVICE MEMPHIS TN
700 PM CDT SAT SEP 24 2016

TNZ002-004-019-021-049-052-054-088>092-250100-
WEST TENNESSEE

CITY           SKY/WX    TMP DP  RH WIND       PRES   REMARKS
MEMPHIS INTL   PTCLDY    91  64  40 SE6       29.99S HX  92
NWS MEMPHIS      N/A     85 N/A N/A MISG        N/A
JACKSON          N/A    N/A N/A N/A MISG      30.01F
DYERSBURG      CLEAR    N/A N/A N/A MISG        N/A
UNION CITY     CLEAR     84  66  54 CALM      30.00F
PARIS          CLEAR     77  68  73 CALM      30.04F
HUNTINGDON       N/A     81  70  69 CALM      30.02S
LEXINGTON      CLEAR     79  72  78 NE3       30.03S
$$

TNZ008-025-027-028-033-062-065-066-250100-
NORTH MIDDLE TENNESSEE

CITY           SKY/WX    TMP DP  RH WIND       PRES   REMARKS
NASHVILLE      CLEAR     83  62  49 E6        30.06S
PORTLAND       CLEAR     79  66  65 CALM      30.07F
CLARKSVILLE    CLEAR     81  65  58 E5        30.05S
SMYRNA         CLEAR     83  63  50 NE7       30.06S
COOKEVILLE     CLEAR     73  68  83 CALM      30.08S
GALLATIN       CLEAR     82  66  57 CALM      30.08F
CROSSVILLE     CLEAR     78  62  57 N3        30.13S
$$

TNZ061-075-076-078-094-096-097-250100-
SOUTH MIDDLE TENNESSEE

CITY           SKY/WX    TMP DP  RH WIND       PRES   REMARKS
FAYETTEVILLE   CLOUDY    81  63  54 CALM      30.05S
TULLAHOMA        N/A     81  61  50 N3        30.08S
WINCHESTER     PTCLDY    82  63  51 N5        30.07R
MCMINNVILLE    CLEAR     79  66  65 N3        30.08S
COLUMBIA       CLEAR     79  73  83 CALM      30.04S
SHELBYVILLE    CLEAR     82  63  51 NE5       30.07S
$$

TNZ017-018-042-046-047-250100-
NORTHEAST TENNESSEE

CITY           SKY/WX    TMP DP  RH WIND       PRES   REMARKS
TRI CITIES     PTCLDY    75  64  68 CALM      30.10S
ELIZABETHTON     N/A     72  63  73 CALM      30.10S
$$

TNZ012-013-036-069-073-074-250100-
CENTRAL EAST TENNESSEE

CITY           SKY/WX    TMP DP  RH WIND       PRES   REMARKS
KNOXVILLE      CLEAR     84  59  42 N7        30.05S
OAK RIDGE      PTCLDY    82  65  56 CALM      30.08R
DOWNTOWN KNOXV CLEAR     77  66  69 CALM      30.05S
GATLINBURG     CLEAR     82  61  47 CALM      30.06S
MORRISTOWN     CLEAR     81  63  54 CALM      30.08S
JACKSBORO      CLEAR     77  63  61 CALM      30.11S
$$

TNZ083-085-099-250100-
SOUTHEAST TENNESSEE

CITY           SKY/WX    TMP DP  RH WIND       PRES   REMARKS
CHATTANOOGA    PTCLDY    84  61  45 NW5       30.03S
$$

SKY/WX REPORTED AS FAIR MEANS FEW OR NO CLOUDS BELOW
12 THOUSAND FEET.




USA.gov is the U.S. government's official web portal to all federal, state and local government web resources and services.